User: anonymous   Login
Location: Caltech
(34.1382°N, 118.1253°W)
Time: 09:51:55
(UTC-07:00)
Language:

Gbstr 26 Del rocket - Orbit

View from above orbital plane
View from above orbital plane
View from above satellite
View from above satellite

Ground track
Ground track

The orbit data is extracted from the following two-line orbital elements,

1 25876U 99041E   16274.44382162  .00000609  00000-0  14564-3 0  9999
2 25876  51.7645 261.5276 0532481 351.1728   8.0114 14.03887992878128
Epoch (UTC): 30 September 2016 10:39:06
Eccentricity: 0.0532481
inclination: 51.7645°
perigee height: 494 km
apogee height: 1267 km
right ascension of ascending node: 261.5276°
argument of perigee: 351.1728°
revolutions per day: 14.03887992
mean anomaly at epoch: 8.0114°
orbit number at epoch: 87812

The dashed part of the orbit path shows where the satellite is in the earth's shadow,  

DLR